Time,TemperatureF,DewpointF,PressureIn,WindDirection,WindDirectionDegrees,WindSpeedMPH,WindSpeedGustMPH,Humidity,HourlyPrecipIn,Conditions,Clouds,dailyrainin,SolarRadiationWatts/m^2,SoftwareType,DateUTC
2013-03-31 00:23:00,51.0,33.0,-100.00,WSW,257,0.0,3.0,50,0.00,,,0.00,0.000000,,2013-03-31 04:23:00,
2013-03-31 00:33:00,51.0,33.0,-100.00,WSW,257,0.0,3.0,50,0.00,,,0.00,0.000000,,2013-03-31 04:33:00,
2013-03-31 00:42:00,51.0,33.0,-100.00,WSW,257,0.0,3.0,50,0.00,,,0.00,0.000000,,2013-03-31 04:42:00,
2013-03-31 00:52:00,48.0,34.0,-100.00,SW,231,1.0,6.0,59,0.00,,,0.00,0.000000,,2013-03-31 04:52:00,
2013-03-31 01:13:00,48.0,34.0,-100.00,SW,231,1.0,6.0,59,0.00,,,0.00,0.000000,,2013-03-31 05:13:00,
2013-03-31 01:22:00,48.0,34.0,-100.00,SW,231,1.0,6.0,59,0.00,,,0.00,0.000000,,2013-03-31 05:22:00,
2013-03-31 01:32:00,48.0,34.0,-100.00,SW,231,1.0,6.0,59,0.00,,,0.00,0.000000,,2013-03-31 05:32:00,
2013-03-31 01:42:00,48.0,34.0,-100.00,SW,231,1.0,6.0,59,0.00,,,0.00,0.000000,,2013-03-31 05:42:00,
2013-03-31 01:52:00,47.0,35.0,-100.00,SW,230,2.0,4.0,63,0.00,,,0.00,0.000000,,2013-03-31 05:52:00,
2013-03-31 02:23:00,47.0,35.0,-100.00,SW,230,2.0,4.0,63,0.00,,,0.00,0.000000,,2013-03-31 06:23:00,
2013-03-31 02:33:00,47.0,35.0,-100.00,SW,230,2.0,4.0,63,0.00,,,0.00,0.000000,,2013-03-31 06:33:00,
2013-03-31 02:42:00,47.0,35.0,-100.00,SW,230,2.0,4.0,63,0.00,,,0.00,0.000000,,2013-03-31 06:42:00,
2013-03-31 02:52:00,48.0,38.0,-100.00,WSW,247,1.0,5.0,69,0.00,,,0.00,0.000000,,2013-03-31 06:52:00,
2013-03-31 03:12:00,48.0,38.0,-100.00,WSW,247,1.0,5.0,69,0.00,,,0.00,0.000000,,2013-03-31 07:12:00,
2013-03-31 03:22:00,48.0,38.0,-100.00,WSW,247,1.0,5.0,69,0.00,,,0.00,0.000000,,2013-03-31 07:22:00,
2013-03-31 03:33:00,48.0,38.0,-100.00,WSW,247,1.0,5.0,69,0.00,,,0.00,0.000000,,2013-03-31 07:33:00,
2013-03-31 03:43:00,48.0,38.0,-100.00,WSW,247,1.0,5.0,69,0.00,,,0.00,0.000000,,2013-03-31 07:43:00,
2013-03-31 03:52:00,48.0,39.0,-100.00,West,270,2.0,6.0,72,0.00,,,0.00,0.000000,,2013-03-31 07:52:00,
2013-03-31 04:22:00,48.0,39.0,-100.00,West,270,2.0,6.0,72,0.00,,,0.00,0.000000,,2013-03-31 08:22:00,
2013-03-31 04:32:00,48.0,39.0,-100.00,West,270,2.0,6.0,72,0.00,,,0.00,0.000000,,2013-03-31 08:32:00,
2013-03-31 04:42:00,48.0,39.0,-100.00,West,270,2.0,6.0,72,0.00,,,0.00,0.000000,,2013-03-31 08:42:00,
2013-03-31 04:52:00,46.0,39.0,-100.00,WSW,242,2.0,5.0,77,0.00,,,0.00,0.000000,,2013-03-31 08:52:00,
2013-03-31 05:12:00,46.0,39.0,-100.00,WSW,242,2.0,5.0,77,0.00,,,0.00,0.000000,,2013-03-31 09:12:00,
2013-03-31 05:22:00,46.0,39.0,-100.00,WSW,242,2.0,5.0,77,0.00,,,0.00,0.000000,,2013-03-31 09:22:00,
2013-03-31 05:33:00,46.0,39.0,-100.00,WSW,242,2.0,5.0,77,0.00,,,0.00,0.000000,,2013-03-31 09:33:00,
2013-03-31 05:43:00,46.0,39.0,-100.00,WSW,242,2.0,5.0,77,0.00,,,0.00,0.000000,,2013-03-31 09:43:00,
2013-03-31 05:52:00,46.0,41.0,-100.00,WSW,242,2.0,6.0,82,0.00,,,0.00,0.000000,,2013-03-31 09:52:00,
2013-03-31 06:13:00,46.0,41.0,-100.00,WSW,242,2.0,6.0,82,0.00,,,0.00,0.000000,,2013-03-31 10:13:00,
2013-03-31 06:24:00,46.0,41.0,-100.00,WSW,242,2.0,6.0,82,0.00,,,0.00,0.000000,,2013-03-31 10:24:00,
2013-03-31 06:33:00,46.0,41.0,-100.00,WSW,242,2.0,6.0,82,0.00,,,0.00,0.000000,,2013-03-31 10:33:00,
2013-03-31 06:42:00,46.0,41.0,-100.00,WSW,242,2.0,6.0,82,0.00,,,0.00,0.000000,,2013-03-31 10:42:00,
2013-03-31 06:52:00,47.0,41.0,-100.00,WSW,251,2.0,8.0,81,0.00,,,0.00,0.000000,,2013-03-31 10:52:00,
2013-03-31 07:12:00,47.0,41.0,-100.00,WSW,251,2.0,8.0,81,0.00,,,0.00,0.000000,,2013-03-31 11:12:00,
2013-03-31 07:23:00,47.0,41.0,-100.00,WSW,251,2.0,8.0,81,0.00,,,0.00,0.000000,,2013-03-31 11:23:00,
2013-03-31 07:33:00,47.0,41.0,-100.00,WSW,251,2.0,8.0,81,0.00,,,0.00,0.000000,,2013-03-31 11:33:00,
2013-03-31 07:42:00,47.0,41.0,-100.00,WSW,251,2.0,8.0,81,0.00,,,0.00,0.000000,,2013-03-31 11:42:00,
2013-03-31 07:52:00,46.0,43.0,-100.00,NW,323,1.0,6.0,90,0.01,,,0.01,2.000000,,2013-03-31 11:52:00,
2013-03-31 08:22:00,46.0,43.0,-100.00,NW,323,1.0,6.0,90,0.01,,,0.01,2.000000,,2013-03-31 12:22:00,
2013-03-31 08:33:00,46.0,43.0,-100.00,NW,323,1.0,6.0,90,0.01,,,0.01,2.000000,,2013-03-31 12:33:00,
2013-03-31 08:42:00,46.0,43.0,-100.00,NW,323,1.0,6.0,90,0.01,,,0.01,2.000000,,2013-03-31 12:42:00,
2013-03-31 08:52:00,46.0,46.0,-100.00,WSW,243,3.0,8.0,99,0.15,,,0.16,9.000000,,2013-03-31 12:52:00,
2013-03-31 09:12:00,46.0,46.0,-100.00,WSW,243,3.0,8.0,99,0.15,,,0.16,9.000000,,2013-03-31 13:12:00,
2013-03-31 09:23:00,46.0,46.0,-100.00,WSW,243,3.0,8.0,99,0.15,,,0.16,9.000000,,2013-03-31 13:23:00,
2013-03-31 09:32:00,46.0,46.0,-100.00,WSW,243,3.0,8.0,99,0.15,,,0.16,9.000000,,2013-03-31 13:32:00,
2013-03-31 09:42:00,46.0,46.0,-100.00,WSW,243,3.0,8.0,99,0.15,,,0.16,9.000000,,2013-03-31 13:42:00,
2013-03-31 09:52:00,48.0,48.0,-100.00,West,277,4.0,11.0,99,0.16,,,0.32,26.000000,,2013-03-31 13:52:00,
2013-03-31 10:12:00,48.0,48.0,-100.00,West,277,4.0,11.0,99,0.16,,,0.32,26.000000,,2013-03-31 14:12:00,
2013-03-31 10:22:00,48.0,48.0,-100.00,West,277,4.0,11.0,99,0.16,,,0.32,26.000000,,2013-03-31 14:22:00,
2013-03-31 10:33:00,48.0,48.0,-100.00,West,277,4.0,11.0,99,0.16,,,0.32,26.000000,,2013-03-31 14:33:00,
2013-03-31 10:43:00,48.0,48.0,-100.00,West,277,4.0,11.0,99,0.16,,,0.32,26.000000,,2013-03-31 14:43:00,
2013-03-31 10:52:00,49.0,49.0,-100.00,WNW,293,5.0,15.0,99,0.02,,,0.34,76.000000,,2013-03-31 14:52:00,
2013-03-31 11:13:00,49.0,49.0,-100.00,WNW,293,5.0,15.0,99,0.02,,,0.34,76.000000,,2013-03-31 15:13:00,
2013-03-31 11:23:00,49.0,49.0,-100.00,WNW,293,5.0,15.0,99,0.02,,,0.34,76.000000,,2013-03-31 15:23:00,
2013-03-31 11:34:00,49.0,49.0,-100.00,WNW,293,5.0,15.0,99,0.02,,,0.34,76.000000,,2013-03-31 15:34:00,
2013-03-31 11:43:00,49.0,49.0,-100.00,WNW,293,5.0,15.0,99,0.02,,,0.34,76.000000,,2013-03-31 15:43:00,
2013-03-31 11:52:00,54.0,54.0,-100.00,NW,311,3.0,9.0,99,0.00,,,0.34,135.000000,,2013-03-31 15:52:00,
2013-03-31 12:13:00,54.0,54.0,-100.00,NW,311,3.0,9.0,99,0.00,,,0.34,135.000000,,2013-03-31 16:13:00,
2013-03-31 12:23:00,54.0,54.0,-100.00,NW,311,3.0,9.0,99,0.00,,,0.34,135.000000,,2013-03-31 16:23:00,
2013-03-31 12:33:00,54.0,54.0,-100.00,NW,311,3.0,9.0,99,0.00,,,0.34,135.000000,,2013-03-31 16:33:00,
2013-03-31 12:43:00,54.0,54.0,-100.00,NW,311,3.0,9.0,99,0.00,,,0.34,135.000000,,2013-03-31 16:43:00,
2013-03-31 12:52:00,60.0,57.0,-100.00,NNW,346,2.0,8.0,90,0.00,,,0.34,316.000000,,2013-03-31 16:52:00,
2013-03-31 13:13:00,60.0,57.0,-100.00,NNW,346,2.0,8.0,90,0.00,,,0.34,316.000000,,2013-03-31 17:13:00,
2013-03-31 13:23:00,60.0,57.0,-100.00,NNW,346,2.0,8.0,90,0.00,,,0.34,316.000000,,2013-03-31 17:23:00,
2013-03-31 13:32:00,60.0,57.0,-100.00,NNW,346,2.0,8.0,90,0.00,,,0.34,316.000000,,2013-03-31 17:32:00,
2013-03-31 13:43:00,60.0,57.0,-100.00,NNW,346,2.0,8.0,90,0.00,,,0.34,316.000000,,2013-03-31 17:43:00,
2013-03-31 13:52:00,65.0,55.0,-100.00,North,11,4.0,12.0,70,0.00,,,0.34,456.000000,,2013-03-31 17:52:00,
2013-03-31 14:22:00,65.0,55.0,-100.00,North,11,4.0,12.0,70,0.00,,,0.34,456.000000,,2013-03-31 18:22:00,
2013-03-31 14:33:00,65.0,55.0,-100.00,North,11,4.0,12.0,70,0.00,,,0.34,456.000000,,2013-03-31 18:33:00,
2013-03-31 14:42:00,65.0,55.0,-100.00,North,11,4.0,12.0,70,0.00,,,0.34,456.000000,,2013-03-31 18:42:00,
2013-03-31 14:52:00,67.0,56.0,-100.00,NNW,340,2.0,11.0,69,0.00,,,0.34,241.000000,,2013-03-31 18:52:00,
2013-03-31 15:12:00,67.0,56.0,-100.00,NNW,340,2.0,11.0,69,0.00,,,0.34,241.000000,,2013-03-31 19:12:00,
2013-03-31 15:22:00,67.0,56.0,-100.00,NNW,340,2.0,11.0,69,0.00,,,0.34,241.000000,,2013-03-31 19:22:00,
2013-03-31 15:33:00,67.0,56.0,-100.00,NNW,340,2.0,11.0,69,0.00,,,0.34,241.000000,,2013-03-31 19:33:00,
2013-03-31 15:43:00,67.0,56.0,-100.00,NNW,340,2.0,11.0,69,0.00,,,0.34,241.000000,,2013-03-31 19:43:00,
2013-03-31 15:52:00,68.0,55.0,-100.00,North,356,3.0,12.0,63,0.00,,,0.34,293.000000,,2013-03-31 19:52:00,
2013-03-31 16:13:00,68.0,55.0,-100.00,North,356,3.0,12.0,63,0.00,,,0.34,293.000000,,2013-03-31 20:13:00,
2013-03-31 16:23:00,68.0,55.0,-100.00,North,356,3.0,12.0,63,0.00,,,0.34,293.000000,,2013-03-31 20:23:00,
2013-03-31 16:34:00,68.0,55.0,-100.00,North,356,3.0,12.0,63,0.00,,,0.34,293.000000,,2013-03-31 20:34:00,
2013-03-31 16:43:00,68.0,55.0,-100.00,North,356,3.0,12.0,63,0.00,,,0.34,293.000000,,2013-03-31 20:43:00,
2013-03-31 16:52:00,66.0,52.0,-100.00,NNE,30,3.0,11.0,61,0.00,,,0.34,204.000000,,2013-03-31 20:52:00,
2013-03-31 17:13:00,66.0,52.0,-100.00,NNE,30,3.0,11.0,61,0.00,,,0.34,204.000000,,2013-03-31 21:13:00,
2013-03-31 17:22:00,66.0,52.0,-100.00,NNE,30,3.0,11.0,61,0.00,,,0.34,204.000000,,2013-03-31 21:22:00,
2013-03-31 17:34:00,66.0,52.0,-100.00,NNE,30,3.0,11.0,61,0.00,,,0.34,204.000000,,2013-03-31 21:34:00,
2013-03-31 17:43:00,66.0,52.0,-100.00,NNE,30,3.0,11.0,61,0.00,,,0.34,204.000000,,2013-03-31 21:43:00,
2013-03-31 17:52:00,66.0,51.0,-100.00,NNE,30,3.0,10.0,59,0.00,,,0.34,214.000000,,2013-03-31 21:52:00,
2013-03-31 18:13:00,66.0,51.0,-100.00,NNE,30,3.0,10.0,59,0.00,,,0.34,214.000000,,2013-03-31 22:13:00,
2013-03-31 18:24:00,66.0,51.0,-100.00,NNE,30,3.0,10.0,59,0.00,,,0.34,214.000000,,2013-03-31 22:24:00,
2013-03-31 18:33:00,66.0,51.0,-100.00,NNE,30,3.0,10.0,59,0.00,,,0.34,214.000000,,2013-03-31 22:33:00,
2013-03-31 18:43:00,66.0,51.0,-100.00,NNE,30,3.0,10.0,59,0.00,,,0.34,214.000000,,2013-03-31 22:43:00,
2013-03-31 18:52:00,63.0,51.0,-100.00,NNW,347,0.0,9.0,66,0.00,,,0.34,83.000000,,2013-03-31 22:52:00,
2013-03-31 19:22:00,63.0,51.0,-100.00,NNW,347,0.0,9.0,66,0.00,,,0.34,83.000000,,2013-03-31 23:22:00,
2013-03-31 19:33:00,63.0,51.0,-100.00,NNW,347,0.0,9.0,66,0.00,,,0.34,83.000000,,2013-03-31 23:33:00,
2013-03-31 19:43:00,63.0,51.0,-100.00,NNW,347,0.0,9.0,66,0.00,,,0.34,83.000000,,2013-03-31 23:43:00,
2013-03-31 19:52:00,59.0,56.0,-100.00,NW,318,1.0,4.0,89,0.01,,,0.35,12.000000,,2013-03-31 23:52:00,
2013-03-31 20:13:00,59.0,56.0,-100.00,NW,318,1.0,4.0,89,0.01,,,0.35,12.000000,,2013-04-01 00:13:00,
2013-03-31 20:22:00,59.0,56.0,-100.00,NW,318,1.0,4.0,89,0.01,,,0.35,12.000000,,2013-04-01 00:22:00,
2013-03-31 20:32:00,59.0,56.0,-100.00,NW,318,1.0,4.0,89,0.01,,,0.35,12.000000,,2013-04-01 00:32:00,
2013-03-31 20:43:00,59.0,56.0,-100.00,NW,318,1.0,4.0,89,0.01,,,0.35,12.000000,,2013-04-01 00:43:00,
2013-03-31 20:52:00,59.0,58.0,-100.00,NNE,14,0.0,3.0,96,0.00,,,0.35,0.000000,,2013-04-01 00:52:00,
2013-03-31 21:13:00,59.0,58.0,-100.00,NNE,14,0.0,3.0,96,0.00,,,0.35,0.000000,,2013-04-01 01:13:00,
2013-03-31 21:23:00,59.0,58.0,-100.00,NNE,14,0.0,3.0,96,0.00,,,0.35,0.000000,,2013-04-01 01:23:00,
2013-03-31 21:33:00,59.0,58.0,-100.00,NNE,14,0.0,3.0,96,0.00,,,0.35,0.000000,,2013-04-01 01:33:00,
2013-03-31 21:43:00,59.0,58.0,-100.00,NNE,14,0.0,3.0,96,0.00,,,0.35,0.000000,,2013-04-01 01:43:00,
2013-03-31 21:52:00,58.0,58.0,-100.00,North,350,2.0,7.0,99,0.03,,,0.38,0.000000,,2013-04-01 01:52:00,
2013-03-31 22:13:00,58.0,58.0,-100.00,North,350,2.0,7.0,99,0.03,,,0.38,0.000000,,2013-04-01 02:13:00,
2013-03-31 22:23:00,58.0,58.0,-100.00,North,350,2.0,7.0,99,0.03,,,0.38,0.000000,,2013-04-01 02:23:00,
2013-03-31 22:33:00,58.0,58.0,-100.00,North,350,2.0,7.0,99,0.03,,,0.38,0.000000,,2013-04-01 02:33:00,
2013-03-31 22:42:00,58.0,58.0,-100.00,North,350,2.0,7.0,99,0.03,,,0.38,0.000000,,2013-04-01 02:42:00,
2013-03-31 22:52:00,55.0,55.0,-100.00,NNW,329,2.0,6.0,99,0.05,,,0.43,0.000000,,2013-04-01 02:52:00,
2013-03-31 23:23:00,55.0,55.0,-100.00,NNW,329,2.0,6.0,99,0.05,,,0.43,0.000000,,2013-04-01 03:23:00,
2013-03-31 23:34:00,55.0,55.0,-100.00,NNW,329,2.0,6.0,99,0.05,,,0.43,0.000000,,2013-04-01 03:34:00,
2013-03-31 23:43:00,55.0,55.0,-100.00,NNW,329,2.0,6.0,99,0.05,,,0.43,0.000000,,2013-04-01 03:43:00,
2013-03-31 23:52:00,56.0,56.0,-100.00,ENE,75,0.0,14.0,99,0.02,,,0.45,0.000000,,2013-04-01 03:52:00,